Location: Chircca
(13.7944°S, 72.0608°W)
Time: 06:59:42
(UTC+00:00)

SJ-12 - Visible Passes

Search period start: 20 October 2020 00:00
Search period end: 30 October 2020 00:00
Orbit: 570 x 584 km, 97.7° (Epoch: 19 October)

Date Brightness Start Highest point End Pass type
(mag) Time Alt. Az. Time Alt. Az. Time Alt. Az.
20 Oct 7.3 08:25:10 10° E 08:26:40 12° ESE 08:28:09 10° SE visible
21 Oct 7.2 08:28:34 10° ENE 08:30:34 13° ESE 08:32:36 10° SE visible
22 Oct 7.0 08:32:05 10° ENE 08:34:29 15° ESE 08:36:54 10° SE visible
23 Oct 6.9 08:35:42 10° ENE 08:38:24 17° ESE 08:41:07 10° SSE visible
24 Oct 6.7 08:39:21 10° ENE 08:42:19 20° ESE 08:45:16 10° SSE visible
25 Oct 6.5 08:43:03 10° NE 08:46:13 22° ESE 08:49:25 10° SSE visible
26 Oct 6.3 08:46:46 10° NE 08:50:08 25° ESE 08:53:30 10° SSE visible
27 Oct 6.0 08:50:32 10° NE 08:54:02 28° ESE 08:57:35 10° SSE visible
28 Oct 5.8 08:54:19 10° NE 08:57:58 32° ESE 09:01:37 10° SSE visible
29 Oct 5.5 08:58:07 10° NE 09:01:52 37° ESE 09:05:39 10° S visible
